TimePST,TemperatureF,Dew PointF,Humidity,Sea Level PressureIn,VisibilityMPH,Wind Direction,Wind SpeedMPH,Gust SpeedMPH,PrecipitationIn,Events,Conditions,WindDirDegrees,DateUTC
12:53 AM,58.1,53.1,83,30.16,10.0,Calm,Calm,-,N/A,,Partly Cloudy,0,2012-11-20 08:53:00
1:53 AM,56.7,52.0,84,30.16,10.0,Calm,Calm,-,N/A,,Partly Cloudy,0,2012-11-20 09:53:00
2:53 AM,56.5,53.1,88,30.14,10.0,Calm,Calm,-,N/A,,Partly Cloudy,0,2012-11-20 10:53:00
3:53 AM,56.5,54.0,91,30.14,8.0,Calm,Calm,-,N/A,,Partly Cloudy,0,2012-11-20 11:53:00
4:53 AM,56.1,52.0,86,30.14,10.0,ENE,3.5,-,N/A,,Partly Cloudy,70,2012-11-20 12:53:00
5:53 AM,55.9,51.1,84,30.14,10.0,Calm,Calm,-,N/A,,Partly Cloudy,0,2012-11-20 13:53:00
6:53 AM,55.8,51.1,84,30.15,10.0,NW,3.5,-,N/A,Fog,Shallow Fog,320,2012-11-20 14:53:00
7:53 AM,57.9,52.0,81,30.16,10.0,NNW,3.5,-,N/A,,Partly Cloudy,340,2012-11-20 15:53:00
8:53 AM,61.0,53.1,75,30.16,10.0,Calm,Calm,-,N/A,,Partly Cloudy,0,2012-11-20 16:53:00
9:53 AM,64.0,53.1,67,30.15,10.0,Calm,Calm,-,N/A,,Partly Cloudy,0,2012-11-20 17:53:00
10:53 AM,64.9,53.1,65,30.14,10.0,West,8.1,-,N/A,,Partly Cloudy,270,2012-11-20 18:53:00
11:53 AM,66.0,53.1,63,30.10,10.0,West,6.9,-,N/A,,Partly Cloudy,260,2012-11-20 19:53:00
12:53 PM,64.9,53.1,65,30.07,10.0,SW,9.2,-,N/A,,Partly Cloudy,230,2012-11-20 20:53:00
1:53 PM,64.9,53.1,65,30.06,10.0,West,13.8,-,N/A,,Partly Cloudy,270,2012-11-20 21:53:00
2:53 PM,64.0,54.0,70,30.06,10.0,West,15.0,-,N/A,,Scattered Clouds,270,2012-11-20 22:53:00
3:53 PM,63.0,53.1,70,30.05,10.0,West,9.2,-,N/A,,Partly Cloudy,260,2012-11-20 23:53:00
4:53 PM,62.1,55.0,78,30.05,10.0,WSW,8.1,-,N/A,,Partly Cloudy,250,2012-11-21 00:53:00
5:53 PM,62.1,55.9,80,30.05,10.0,WSW,8.1,-,N/A,,Partly Cloudy,240,2012-11-21 01:53:00
6:53 PM,62.1,57.0,84,30.05,10.0,SW,4.6,-,N/A,,Clear,220,2012-11-21 02:53:00
7:53 PM,61.0,57.0,87,30.06,10.0,ESE,4.6,-,N/A,,Clear,120,2012-11-21 03:53:00
8:53 PM,60.1,55.9,86,30.06,10.0,Variable,3.5,-,N/A,,Partly Cloudy,0,2012-11-21 04:53:00
9:53 PM,60.1,55.9,86,30.07,10.0,Variable,3.5,-,N/A,,Clear,0,2012-11-21 05:53:00
10:53 PM,58.3,55.9,92,30.07,10.0,East,4.6,-,N/A,,Clear,100,2012-11-21 06:53:00
11:21 PM,57.2,55.4,94,30.07,9.0,East,5.8,-,N/A,,Scattered Clouds,100,2012-11-21 07:21:00
11:53 PM,57.6,55.9,94,30.06,4.0,ESE,5.8,-,N/A,Fog,Patches of Fog,110,2012-11-21 07:53:00